www.pogodaiklimat.ru

Погода и климат >> Архив погоды >> Австралия >> Западная Австралия >> Фицрой-Кроссинг


ПОГОДА в Фицрой-Кроссинге

  • Прогноз погоды в Фицрой-Кроссинге
  • Монитор погоды в Фицрой-Кроссинге

АРХИВ ПОГОДЫ в Фицрой-Кроссинге

Время (UTC), дата Ветер
(напр.,м/с)
 
Видим.   Явления Облачность Т
(С)
Тd
(С)
f
(%)
Тe
(С)
Тes
(С)
Комфортность P
(гПа)
Po
(гПа)
Тmin
(С)
Tmax
(С)
R
(мм)
R24
(мм)
S
(см)
13 12.01 С 3 н/о н/о +36.3 +13.7 26 +37 +37 очень
жарко
1004.1 991.4 +45.8
15 12.01 З 7 н/о н/о +34.3 +23.0 52 +44 +44 опасность
перегрева
1003.5 990.8
16 12.01 СЗ 6 н/о н/о +32.8 +24.0 60 +45 +45 опасность
перегрева
1003.7 991.0
18 12.01 С 4 н/о н/о +31.1 +25.0 70 +45 +45 опасность
перегрева
1005.9 993.1
19 12.01 С 6 н/о н/о +30.5 +24.6 71 +43 +43 опасность
перегрева
1004.7 992.0
21 12.01 В 3 н/о н/о +30.1 +24.0 70 +42 +42 опасность
перегрева
1006.9 994.1
22 12.01 ЮЗ 3 н/о н/о +30.2 +24.6 72 +43 +43 опасность
перегрева
1007.8 995.0
00 13.01 СЗ 5 н/о н/о +33.7 +22.1 51 +43 +43 опасность
перегрева
1007.7 994.9
01 13.01 СЗ 4 н/о н/о +35.5 +21.0 43 +43 +43 опасность
перегрева
1007.5 994.7 +29.1
03 13.01 З 4 н/о н/о +38.5 +20.3 35 +44 +44 опасность
перегрева
1006.4 993.6
04 13.01 С 4 н/о н/о +39.7 +18.3 29 +43 +43 опасность
перегрева
1005.6 992.8
06 13.01 СВ 4 н/о н/о +41.7 +18.3 26 +45 +45 опасность
перегрева
1003.4 990.7
07 13.01 С 5 н/о н/о +41.9 +18.4 26 +45 +45 опасность
перегрева
1002.3 989.6
09 13.01 С 6 н/о н/о +37.1 +20.8 39 +44 +44 опасность
перегрева
1002.7 990.0
10 13.01 СЗ 5 н/о н/о +35.7 +20.8 42 +43 +43 опасность
перегрева
1003.6 990.9
12 13.01 СЗ 3 н/о н/о +32.9 +20.4 48 +40 +40 очень
душно
1004.4 991.7
13 13.01 С 3 н/о н/о +32.9 +20.4 48 +40 +40 очень
душно
1005.4 992.6 +42.9
15 13.01 СВ 4 н/о н/о +32.1 +21.3 53 +40 +40 очень
душно
1005.4 992.6
16 13.01 С 4 н/о н/о +30.7 +21.5 58 +39 +39 очень
душно
1004.2 991.5
18 13.01 В 7 н/о н/о +26.4 +22.3 78 +34 +34 очень
душно
1006.9 994.1
19 13.01 С 4 н/о {туман} н/о +25.8 +20.4 72 +32 +32 очень
душно
1004.5 991.8
21 13.01 штиль 0 н/о н/о +25.3 +20.8 76 +32 +32 очень
душно
1004.9 992.2
22 13.01 Ю 2 н/о н/о +27.0 +21.1 70 +34 +34 очень
душно
1006.6 993.8
00 14.01 штиль 0 н/о н/о +31.7 +20.3 51 +38 +38 очень
душно
1006.6 993.8
01 14.01 СВ 2 н/о {туман} н/о +33.8 +19.8 44 +40 +40 очень
душно
1006.5 993.7 +24.9
03 14.01 С 3 н/о н/о +39.0 +16.6 27 +41 +41 опасность
перегрева
1005.3 992.5
04 14.01 ЮЗ 4 н/о н/о +40.0 +16.2 25 +42 +42 опасность
перегрева
1004.0 991.3
06 14.01 Ю 4 н/о н/о +41.1 +15.8 23 +43 +43 опасность
перегрева
1001.6 988.9
07 14.01 В 5 н/о н/о +42.6 +15.6 21 +44 +44 опасность
перегрева
1001.0 988.3
09 14.01 В 7 н/о н/о +36.1 +16.3 31 +38 +38 очень
душно
1002.0 989.3
10 14.01 ЮЗ 5 н/о н/о +35.3 +17.0 34 +38 +38 очень
душно
1002.8 990.1
12 14.01 С 4 н/о н/о +33.3 +17.5 39 +37 +37 очень
душно
1004.5 991.8
13 14.01 С 2 н/о н/о +32.5 +17.5 41 +36 +36 очень
душно
1004.9 992.2 +42.9
15 14.01 СЗ 2 н/о н/о +30.2 +17.6 47 +34 +34 очень
душно
1005.4 992.6
16 14.01 СЗ 2 н/о н/о +29.2 +19.5 56 +35 +35 очень
душно
1005.0 992.3
18 14.01 З 2 н/о н/о +28.3 +19.8 60 +34 +34 очень
душно
1004.6 991.9
19 14.01 штиль 0 н/о н/о +28.0 +20.3 63 +34 +34 очень
душно
1004.7 992.0
21 14.01 штиль 0 н/о н/о +27.0 +20.6 68 +34 +34 очень
душно
1006.4 993.6
22 14.01 ЮЗ 1 н/о н/о +27.9 +21.0 66 +35 +35 очень
душно
1007.1 994.3
00 15.01 З 3 н/о н/о +33.2 +21.0 49 +41 +41 опасность
перегрева
1007.5 994.7
01 15.01 СВ 2 н/о н/о +34.5 +19.7 42 +40 +40 очень
душно
1007.3 994.5 +26.8
03 15.01 ЮЗ 3 н/о н/о +38.1 +19.0 33 +43 +43 опасность
перегрева
1005.6 992.8
04 15.01 В 3 н/о н/о +39.3 +17.4 28 +42 +42 опасность
перегрева
1004.8 992.1
06 15.01 В 6 н/о н/о +40.0 +18.0 28 +43 +43 опасность
перегрева
1003.6 990.9
07 15.01 В 5 н/о н/о +40.2 +17.0 26 +43 +43 опасность
перегрева
1002.8 990.1
09 15.01 С 7 н/о н/о +37.5 +18.0 32 +41 +41 опасность
перегрева
1002.3 989.6
10 15.01 В 2 н/о н/о +36.3 +14.9 28 +38 +38 очень
душно
1003.1 990.4
12 15.01 С 3 н/о н/о +34.3 +17.5 37 +38 +38 очень
душно
1004.2 991.5
13 15.01 СЗ 2 н/о н/о +32.9 +17.5 40 +37 +37 очень
душно
1004.8 992.1 +41.7
15 15.01 СЗ 9 н/о н/о +31.3 +21.5 56 +39 +39 очень
душно
1006.0 993.2
16 15.01 СЗ 6 н/о н/о +30.3 +21.7 60 +39 +39 очень
душно
1005.3 992.5
18 15.01 СЗ 4 н/о н/о +28.9 +20.6 61 +36 +36 очень
душно
1005.2 992.4
19 15.01 СЗ 3 н/о н/о +28.3 +20.6 63 +35 +35 очень
душно
1005.4 992.6
21 15.01 З 2 н/о н/о +27.5 +20.8 67 +34 +34 очень
душно
1006.6 993.8
22 15.01 З 3 н/о н/о +28.6 +21.1 64 +36 +36 очень
душно
1007.4 994.6
00 16.01 З 5 н/о н/о +32.1 +21.0 52 +40 +40 очень
душно
1008.3 995.5
01 16.01 З 2 н/о н/о +33.5 +20.3 46 +40 +40 очень
душно
1008.2 995.4 +27.5
03 16.01 З 4 н/о н/о +36.5 +19.4 37 +42 +42 опасность
перегрева
1007.2 994.4
04 16.01 ЮВ 4 н/о н/о +37.6 +19.0 34 +42 +42 опасность
перегрева
1006.4 993.6
06 16.01 З 4 н/о н/о +39.6 +17.1 27 +42 +42 опасность
перегрева
1003.4 990.7
07 16.01 ЮВ 3 н/о н/о +40.4 +15.9 24 +42 +42 опасность
перегрева
1002.3 989.6
09 16.01 СВ 7 н/о н/о +36.1 +17.3 33 +39 +39 очень
душно
1003.4 990.7
10 16.01 В 4 н/о н/о +34.3 +18.3 39 +39 +39 очень
душно
1004.1 991.4
12 16.01 Ю 3 н/о н/о +31.9 +16.6 40 +35 +35 очень
душно
1004.9 992.2
13 16.01 В 2 н/о н/о +31.9 +17.0 41 +35 +35 очень
душно
1007.1 994.3 +41.6
15 16.01 СЗ 5 н/о н/о +30.8 +18.2 47 +35 +35 очень
душно
1007.3 994.5
16 16.01 СЗ 5 н/о н/о +30.1 +20.1 55 +37 +37 очень
душно
1006.7 993.9
18 16.01 З 6 н/о н/о +29.2 +21.7 64 +37 +37 очень
душно
1005.6 992.8
19 16.01 СЗ 5 н/о н/о +28.7 +21.5 65 +37 +37 очень
душно
1005.6 992.8
21 16.01 З 3 н/о н/о +27.9 +21.9 70 +36 +36 очень
душно
1006.1 993.3
22 16.01 З 3 н/о н/о +28.6 +22.6 70 +38 +38 очень
душно
1007.6 994.8
00 17.01 Ю 5 н/о н/о +31.0 +20.6 54 +38 +38 очень
душно
1009.1 996.3
01 17.01 ЮЗ 4 н/о н/о +33.9 +21.0 47 +41 +41 опасность
перегрева
1008.5 995.7 +27.9
03 17.01 Ю 4 н/о н/о +36.5 +20.7 40 +43 +43 опасность
перегрева
1006.7 993.9
04 17.01 ЮЗ 4 н/о н/о +38.2 +20.0 35 +44 +44 опасность
перегрева
1005.4 992.6
06 17.01 ЮВ 3 н/о н/о +40.1 +19.2 30 +45 +45 опасность
перегрева
1002.7 990.0
07 17.01 ЮВ 4 н/о н/о +39.0 +18.3 30 +43 +43 опасность
перегрева
1001.8 989.1
09 17.01 ЮЗ 3 н/о н/о +32.7 +23.1 57 +43 +43 опасность
перегрева
1001.7 989.0
10 17.01 СЗ 2 н/о {туман} н/о +34.7 +22.4 49 +44 +44 опасность
перегрева
1002.3 989.6
12 17.01 СЗ 7 н/о н/о +30.1 +21.7 61 +38 +38 очень
душно
1005.6 992.8
13 17.01 СЗ 4 н/о {туман} н/о +29.4 +21.4 62 +37 +37 очень
душно
1006.2 993.4 +41.6
15 17.01 С 6 н/о н/о +27.7 +19.8 62 +34 +34 очень
душно
1007.1 994.3
16 17.01 СЗ 4 н/о н/о +27.4 +20.0 64 +34 +34 очень
душно
1006.2 993.4
18 17.01 ЮЗ 3 н/о н/о +26.7 +20.5 69 +33 +33 очень
душно
1004.6 991.9
19 17.01 СВ 5 н/о н/о +27.3 +19.9 64 +33 +33 очень
душно
1006.1 993.3
21 17.01 З 2 н/о н/о +26.1 +21.7 77 +34 +34 очень
душно
1006.1 993.3
22 17.01 штиль 0 н/о {туман} н/о +25.7 +22.4 82 +34 +34 очень
душно
1007.7 994.9
00 18.01 З 6 н/о н/о +29.8 +21.5 61 +38 +38 очень
душно
1008.4 995.6
01 18.01 З 5 н/о в посл. час дождь {туман} н/о +31.8 +21.6 55 +40 +40 очень
душно
1008.1 995.3 +24.4
03 18.01 ЮЗ 4 н/о н/о +34.7 +20.6 44 +41 +41 опасность
перегрева
1007.3 994.5
04 18.01 ЮЗ 5 н/о н/о +36.5 +18.6 35 +41 +41 опасность
перегрева
1006.4 993.6
06 18.01 Ю 4 н/о н/о +38.7 +19.5 33 +44 +44 опасность
перегрева
1004.5 991.8
07 18.01 ЮЗ 5 н/о н/о +39.1 +18.3 30 +43 +43 опасность
перегрева
1003.2 990.5
09 18.01 З 5 н/о н/о +38.0 +17.4 30 +41 +41 опасность
перегрева
1003.1 990.4
10 18.01 ЮЗ 4 н/о н/о +37.0 +18.5 34 +41 +41 опасность
перегрева
1004.0 991.3
12 18.01 В 5 н/о н/о +27.2 +21.9 73 +35 +35 очень
душно
1008.4 995.6
13 18.01 С 4 н/о в посл. час дождь {туман} н/о +26.1 +22.8 82 +35 +35 очень
душно
1008.2 995.4 +40.0
15 18.01 З 2 н/о н/о +26.6 +23.5 83 +36 +36 очень
душно
1006.6 993.8
16 18.01 С 2 н/о {туман} н/о +26.9 +23.4 81 +36 +36 очень
душно
1006.5 993.7
18 18.01 В 4 н/о н/о +27.0 +23.0 79 +36 +36 очень
душно
1006.5 993.7
19 18.01 С 1 н/о {туман} н/о +26.6 +23.3 82 +36 +36 очень
душно
1006.3 993.5
21 18.01 СЗ 3 н/о н/о +25.8 +23.3 86 +35 +35 очень
душно
1007.3 994.5
22 18.01 штиль 0 н/о н/о +27.4 +23.2 78 +37 +37 очень
душно
1008.1 995.3
00 19.01 СЗ 4 н/о н/о +32.5 +21.4 52 +40 +40 очень
душно
1008.4 995.6
01 19.01 СЗ 3 н/о в посл. час дождь {туман} н/о +34.7 +19.5 41 +40 +40 очень
душно
1008.2 995.4 +25.8
03 19.01 ЮВ 4 н/о н/о +38.7 +19.5 33 +44 +44 опасность
перегрева
1007.5 994.7
04 19.01 В 3 н/о н/о +38.4 +18.3 31 +42 +42 опасность
перегрева
1006.4 993.6
06 19.01 СВ 2 н/о н/о +41.4 +16.1 23 +43 +43 опасность
перегрева
1004.2 991.5
07 19.01 Ю 3 н/о н/о +41.3 +16.7 24 +43 +43 опасность
перегрева
1002.8 990.1
09 19.01 С 9 н/о н/о +36.3 +18.8 36 +41 +41 опасность
перегрева
1003.2 990.5
10 19.01 СВ 6 н/о н/о +33.1 +19.9 46 +39 +39 очень
душно
1004.5 991.8
12 19.01 З 4 н/о н/о +33.7 +20.1 45 +40 +40 очень
душно
1007.7 994.9
13 19.01 СЗ 5 н/о в посл. час дождь {туман} н/о +28.1 +23.5 76 +38 +38 очень
душно
1006.8 994.0 +42.7

 

Местоположение метеостанции Фицрой-Кроссинг (Западная Австралия, Австралия): широта -18.18 долгота 125.56 высота над уровнем моря 115 м.

В архиве по умолчанию представлена погода в Фицрой-Кроссинге за последнюю неделю. Архивные данные за месяц целиком и за предыдущие месяцы, начиная с января 2011 года, Вы можете получить, выбрав интересующий диапазон дат из раскрывающегося списка и нажав кнопку "Ввод!".


*Определитесь, кто Вы:
робот инопланетянин человек

Внимание! Время в таблицах - всемирное. Для получения местного времени необходимо прибавить поправку, которая равна 8 ч.

Смотрите также архив погоды в соседних городах и на ближайших метеорологических станциях:

Погода на Базе ВВС Curtin (Западная Австралия, Австралия) (196 км)
Погода в Дерби (Северная территория, Австралия) (221 км)
Погода в Холс Крик (Западная Австралия, Австралия) (222 км)
Погода в Робак Запад (Западная Австралия, Австралия) (344 км)
Погода в Аэропорту Аргайл (Западная Австралия, Австралия) (352 км)
Погода в Бруме (Западная Австралия, Австралия) (353 км)
Погода на Острове Адель (Западная Австралия, Австралия) (392 км)
Погода в Уиндеме (Западная Австралия, Австралия) (406 км)
Погода в Кунунарре (Западная Австралия, Австралия) (428 км)
Погода в Калумбуру (Западная Австралия, Австралия) (447 км)

Пояснения к столбцам:

Ветер - указаны скорость ветра в м/с - средняя за 10 мин, порывы в срок и между сроками (в фигурных скобках) и направление, откуда дует ветер: С - северный, СВ - северо-восточный, В - восточный, ЮВ - юго-восточный, Ю - южный, ЮЗ - юго-западный, З - западный, СЗ - северо-западный.
Видимость - горизонтальная дальность видимости в метрах или километрах. При видимости от 1 до 10 км при отсутствии осадков обычно наблюдается дымка, при ухудшении видимости до 1 км и менее - туман. В сухую погоду видимость может ухудшаться дымом, пылью или мглою.
Явления - указаны атмосферные явления, наблюдавшиеся в срок или в последний час перед сроком; фигурными скобками обозначены явления, наблюдавшиеся между сроками (за 1-3 часа до срока); квадратными скобками обозначены град или гололедные отложения с указанием их диаметра в мм.
Облачность - указаны через наклонную черту общая и нижняя облачность в баллах и высота нижней границы облаков в метрах; квадратными скобками обозначены формы облаков: Ci - перистые, Cs - перисто-слоистые, Cc - перисто-кучевые, Ac - высококучевые, As - высокослоистые, Sc - слоисто-кучевые, Ns - слоисто-дождевые, Cu - кучевые, Cb - кучево-дождевые. Подробнее классификацию облаков см. в Атласе облаков (PDF).
T - Температура воздуха - температура, измеренная на высоте 2 м над землей.
Td - Температура точки росы - температура, при понижении до которой содержащийся в воздухе водяной пар достигнет насыщения.
f - Относительная влажность воздуха - влажноcть воздуха, измеренная на высоте 2 м над землей.
Te - Эффективная температура - температура, которую ощущает одетый по сезону человек в тени. Характеристика душности погоды. При расчете учитывается влияние влажности воздуха и скорости ветра на теплоощущения человека.
Tes - Эффективная температура на солнце - температура, которую ощущает человек, с поправкой на солнечный нагрев. Характеристика знойности погоды. Зависит от высоты солнца над горизонтом, облачности и скорости ветра. Ночью, в пасмурную погоду, а также при ветре 12 м/с и более поправка равна нулю.
P - Атмосферное давление - приведенное к уровню моря атмосферное давление.
Po - Атмосферное давление - измеренное на уровне метеостанции атмосферное давление.
Tmin - Минимальная температура - минимум температуры воздуха на высоте 2 м над землей.
Tmax - Максимальная температура - максимум температуры воздуха на высоте 2 м над землей.
R - Количество осадков - Количество выпавших осадков за период времени, мм. При наведении курсора мыши на число - период времени, за который выпало указанное количество осадков.
R24 - Количество осадков - Количество выпавших осадков за 24 часа, мм.
S - Снежный покров - Высота снежного покрова, см. При наведении курсора мыши на число - состояние снежного покрова и степень покрытия местности в баллах.